Change the Weather History Date:

Monday, December 16, 2013

  Actual Average Record
Temperature  
Mean Temperature 7 °F -  
Max Temperature 21 °F 23 °F 48 °F (2006)
Min Temperature -7 °F 0 °F -29 °F (2005)
Degree Days  
Heating Degree Days 58    
Moisture  
Dew Point -5 °F    
Average Humidity 66    
Maximum Humidity 100    
Minimum Humidity 30    
Precipitation  
Precipitation 0.00 in - - ()
Sea Level Pressure  
Sea Level Pressure 30.51 in    
Wind  
Wind Speed 1 mph (East)    
Max Wind Speed 6 mph    
Max Gust Speed -    
Visibility 10 miles    
Events      
Averages and records for this station are not official NWS values.
T = Trace of Precipitation, MM = Missing Value Source: NWS Daily Summary

Daily Weather History Graph

Daily Weather History Graph

Search for Another Location

Airport or City:

Trip Planner

Search our weather history database for the weather conditions in past years. The results will help you decide how hot, cold, wet, or windy it might be!

Date:

Astronomy

Dec. 16, 2013 Rise Set
Actual Time 7:18 AM MST 4:48 PM MST
Civil Twilight 6:49 AM MST 5:17 PM MST
Nautical Twilight 6:15 AM MST 5:51 PM MST
Astronomical Twilight 5:43 AM MST 6:23 PM MST
Moon 4:40 PM MST (12/16) 6:30 AM MST (12/16)
Length of Visible Light 10h 28m
Length of Day
9h 29m
Full, 100% of the Moon is Illuminated
Dec 16
Full
Dec 17
Full
Dec 25
Last Quarter
Jan 1
New
Jan 7
First Quarter

Hourly Weather History & Observations

Time (MST) Temp. Windchill Dew Point Humidity Pressure Visibility Wind Dir Wind Speed Gust Speed Precip Events Conditions
12:15 AM 1.4 °F -6.2 °F 1.4 °F 100% 30.49 in 9.0 mi NE 3.5 mph - N/A   Clear
12:35 AM -0.4 °F - -14.8 °F 51% 30.50 in 9.0 mi Calm Calm - N/A   Clear
12:55 AM -0.4 °F - -0.4 °F 100% 30.49 in 8.0 mi Calm Calm - N/A   Clear
1:35 AM -2.2 °F - -2.2 °F 100% 30.50 in 9.0 mi Calm Calm - N/A   Clear
1:55 AM -0.4 °F - -14.8 °F 51% 30.50 in 9.0 mi Calm Calm - N/A   Clear
2:15 AM -4.0 °F - -5.8 °F 92% 30.50 in 10.0 mi Calm Calm - N/A   Clear
2:35 AM -2.2 °F - -7.6 °F 78% 30.50 in 10.0 mi Calm Calm - N/A   Clear
2:55 AM -2.2 °F -10.4 °F -14.8 °F 55% 30.49 in 10.0 mi East 3.5 mph - N/A   Clear
3:15 AM -4.0 °F - -5.8 °F 92% 30.50 in 10.0 mi Calm Calm - N/A   Clear
3:55 AM -2.2 °F - -5.8 °F 85% 30.50 in 10.0 mi Calm Calm - N/A   Clear
4:15 AM -5.8 °F - -23.8 °F 42% 30.49 in 10.0 mi Calm Calm - N/A   Clear
4:35 AM -4.0 °F - -9.4 °F 78% 30.49 in 10.0 mi Calm Calm - N/A   Clear
4:55 AM -5.8 °F - -23.8 °F 42% 30.49 in 10.0 mi Calm Calm - N/A   Clear
5:15 AM -5.8 °F - -20.2 °F 50% 30.49 in 10.0 mi Calm Calm - N/A   Clear
5:35 AM -5.8 °F - -23.8 °F 42% 30.49 in 10.0 mi Calm Calm - N/A   Clear
5:55 AM -5.8 °F - -27.4 °F 35% 30.50 in 10.0 mi Calm Calm - N/A   Clear
6:15 AM -5.8 °F - -5.8 °F 100% 30.51 in 10.0 mi Calm Calm - N/A   Clear
6:35 AM -5.8 °F - - N/A% 30.51 in 10.0 mi Calm Calm - N/A   Clear
6:55 AM -7.6 °F - - N/A% 30.51 in 10.0 mi Calm Calm - N/A   Clear
7:15 AM -7.6 °F - -29.2 °F 34% 30.51 in 10.0 mi Calm Calm - N/A   Clear
7:55 AM -7.6 °F - -22.0 °F 50% 30.53 in 10.0 mi Calm Calm - N/A   Clear
8:15 AM -4.0 °F - -18.4 °F 50% 30.54 in 9.0 mi Calm Calm - N/A   Clear
8:35 AM -5.8 °F - -16.6 °F 60% 30.55 in 10.0 mi Calm Calm - N/A   Clear
8:55 AM -5.8 °F - -18.4 °F 55% 30.55 in 10.0 mi Calm Calm - N/A   Clear
9:15 AM -2.2 °F - -25.6 °F 32% 30.56 in 10.0 mi Calm Calm - N/A   Clear
9:35 AM -2.2 °F - -25.6 °F 32% 30.56 in 10.0 mi Calm Calm - N/A   Clear
9:55 AM -0.4 °F -8.3 °F -25.6 °F 30% 30.56 in 10.0 mi ESE 3.5 mph - N/A   Clear
10:15 AM 1.4 °F - -22.0 °F 33% 30.56 in 10.0 mi Calm Calm - N/A   Clear
10:35 AM 3.2 °F - -16.6 °F 39% 30.56 in 10.0 mi Calm Calm - N/A   Clear
10:55 AM 3.2 °F -4.2 °F 3.2 °F 100% 30.55 in 10.0 mi SE 3.5 mph - N/A   Clear
11:15 AM 6.8 °F - -13.0 °F 40% 30.54 in 10.0 mi Calm Calm - N/A   Clear
11:35 AM 8.6 °F 2.0 °F -0.4 °F 67% 30.52 in 10.0 mi SE 3.5 mph - N/A   Clear
11:55 AM 10.4 °F - -0.4 °F 62% 30.51 in 10.0 mi Calm Calm - N/A   Clear
12:15 PM 14.0 °F - 5.0 °F 67% 30.50 in 10.0 mi Calm Calm - N/A   Clear
12:35 PM 12.2 °F 6.1 °F -5.8 °F 45% 30.49 in 10.0 mi SE 3.5 mph - N/A   Clear
12:55 PM 14.0 °F - 6.8 °F 73% 30.49 in 10.0 mi Calm Calm - N/A   Clear
1:15 PM 15.8 °F - 5.0 °F 62% 30.48 in 10.0 mi Calm Calm - N/A   Clear
1:35 PM 15.8 °F - 6.8 °F 68% 30.48 in 10.0 mi Calm Calm - N/A   Clear
1:55 PM 17.6 °F 12.3 °F 6.8 °F 63% 30.47 in 10.0 mi SE 3.5 mph - N/A   Clear
2:15 PM 17.6 °F - 8.6 °F 68% 30.47 in 10.0 mi Calm Calm - N/A   Clear
2:35 PM 19.4 °F - 8.6 °F 63% 30.47 in 10.0 mi Calm Calm - N/A   Clear
2:55 PM 19.4 °F - 10.4 °F 68% 30.46 in 10.0 mi Calm Calm - N/A   Clear
3:15 PM 19.4 °F - 8.6 °F 63% 30.46 in 10.0 mi Calm Calm - N/A   Clear
3:35 PM 21.2 °F - 10.4 °F 63% 30.46 in 10.0 mi Calm Calm - N/A   Clear
3:55 PM 21.2 °F - 8.6 °F 58% 30.46 in 10.0 mi Calm Calm - N/A   Clear
4:15 PM 21.2 °F - 10.4 °F 63% 30.46 in 10.0 mi Calm Calm - N/A   Clear
4:55 PM 17.6 °F - 6.8 °F 63% 30.46 in 10.0 mi Calm Calm - N/A   Clear
5:15 PM 17.6 °F - 8.6 °F 68% 30.46 in 10.0 mi Calm Calm - N/A   Clear
5:35 PM 14.0 °F - 5.0 °F 67% 30.48 in 10.0 mi Calm Calm - N/A   Clear
5:55 PM 10.4 °F - 1.4 °F 67% 30.48 in 10.0 mi Calm Calm - N/A   Clear
6:15 PM 10.4 °F - 6.8 °F 85% 30.48 in 10.0 mi Calm Calm - N/A   Clear
6:35 PM 12.2 °F - 5.0 °F 73% 30.48 in 10.0 mi Calm Calm - N/A   Clear
6:55 PM 10.4 °F - 5.0 °F 79% 30.48 in 9.0 mi Calm Calm - N/A   Clear
7:15 PM 8.6 °F - -0.4 °F 67% 30.49 in 8.0 mi Calm Calm - N/A   Clear
7:35 PM 8.6 °F - 5.0 °F 85% 30.50 in 10.0 mi Calm Calm - N/A   Clear
8:15 PM 6.8 °F -3.5 °F 6.8 °F 100% 30.50 in 10.0 mi NNE 5.8 mph - N/A   Clear
8:35 PM 6.8 °F -2.0 °F -4.0 °F 61% 30.50 in 7.0 mi North 4.6 mph - N/A   Clear
8:55 PM 3.2 °F - 3.2 °F 100% 30.52 in 7.0 mi Calm Calm - N/A   Clear
9:15 PM -0.4 °F - -14.8 °F 51% 30.52 in 10.0 mi Calm Calm - N/A   Clear
9:35 PM 3.2 °F - 3.2 °F 100% 30.52 in 10.0 mi Calm Calm - N/A   Clear
9:55 PM 3.2 °F -6.2 °F -5.8 °F 66% 30.53 in 10.0 mi NE 4.6 mph - N/A   Clear
10:15 PM 1.4 °F - -0.4 °F 92% 30.54 in 5.0 mi Calm Calm - N/A   Clear
10:55 PM 1.4 °F - -5.8 °F 72% 30.55 in 9.0 mi Calm Calm - N/A   Clear
11:15 PM 1.4 °F - -4.0 °F 78% 30.55 in 9.0 mi Calm Calm - N/A   Clear
11:35 PM 1.4 °F - -4.0 °F 78% 30.55 in 9.0 mi Calm Calm - N/A   Clear
11:55 PM 1.4 °F - -0.4 °F 92% 30.56 in 5.0 mi Calm Calm - N/A   Clear